When you browse on this site, cookies collect data to enhance your experience and personalize the content and advertising you see.
Visit our Privacy Policy to learn more. By continuing to use the site, you agree to this use of cookies and data.
  • In Hungary
  • List of Countries
  • For 7 days
  • Water Temperature
  • Weather Map
  • News
  • Weather Widgets
  • user-avatar
    Login

    Hourly Weather Maliivka

    Today, 31 March, Tuesday

    Time Temperature Precipitation Wind Pressure Humidity
    00:00 +1°C° 0 mm 6 mps 749 mmHg 73%
    01:00 +1°C° 0 mm 6 mps 749 mmHg 75%
    02:00 -1°C° 0 mm 6 mps 750 mmHg 74%
    03:00 -1°C° 0 mm 7 mps 750 mmHg 73%
    04:00 -2°C° 0 mm 7 mps 750 mmHg 73%
    05:00 -3°C° 0 mm 7 mps 750 mmHg 72%
    06:00 -3°C° 0 mm 7 mps 751 mmHg 69%
    07:00 -3°C° 0 mm 7 mps 751 mmHg 67%
    08:00 -3°C° 0 mm 7 mps 752 mmHg 64%
    09:00 -2°C° 0 mm 7 mps 752 mmHg 61%
    10:00 -1°C° 0 mm 6 mps 753 mmHg 58%
    11:00 -1°C° 0 mm 6 mps 753 mmHg 56%
    12:00 +1°C° 0 mm 6 mps 753 mmHg 53%
    13:00 +1°C° 0 mm 6 mps 753 mmHg 50%
    14:00 +2°C° 0 mm 6 mps 753 mmHg 48%
    15:00 +2°C° 0 mm 6 mps 753 mmHg 47%
    16:00 +1°C° 0 mm 6 mps 754 mmHg 47%
    17:00 +1°C° 0 mm 6 mps 754 mmHg 46%
    18:00 0°C° 0 mm 5 mps 754 mmHg 47%
    19:00 0°C° 0 mm 5 mps 754 mmHg 48%
    20:00 -1°C° 0 mm 4 mps 755 mmHg 50%
    21:00 -2°C° 0 mm 4 mps 755 mmHg 51%
    22:00 -1°C° 0 mm 3 mps 755 mmHg 53%
    23:00 -2°C° 0 mm 3 mps 755 mmHg 55%

    Tomorrow, 1 April, Wednesday

    Time Temperature Precipitation Wind Pressure Humidity
    00:00 -2°C° 0 mm 3 mps 755 mmHg 54%
    01:00 -2°C° 0 mm 2 mps 756 mmHg 52%
    02:00 -2°C° 0 mm 2 mps 756 mmHg 51%
    03:00 -3°C° 0 mm 2 mps 755 mmHg 51%
    04:00 -3°C° 0 mm 2 mps 755 mmHg 52%
    05:00 -3°C° 0 mm 2 mps 755 mmHg 52%
    06:00 -2°C° 0 mm 3 mps 755 mmHg 49%
    07:00 -1°C° 0 mm 4 mps 755 mmHg 45%
    08:00 0°C° 0 mm 4 mps 755 mmHg 42%
    09:00 +1°C° 0 mm 5 mps 755 mmHg 40%
    10:00 +3°C° 0 mm 5 mps 754 mmHg 38%
    11:00 +5°C° 0 mm 5 mps 754 mmHg 36%
    12:00 +5°C° 0 mm 5 mps 753 mmHg 35%
    13:00 +5°C° 0 mm 6 mps 753 mmHg 35%
    14:00 +5°C° 0 mm 6 mps 753 mmHg 35%
    15:00 +5°C° 0 mm 6 mps 752 mmHg 37%
    16:00 +5°C° 0 mm 6 mps 752 mmHg 38%
    17:00 +4°C° 0 mm 6 mps 751 mmHg 40%
    18:00 +3°C° 0 mm 5 mps 752 mmHg 45%
    19:00 +3°C° 0 mm 4 mps 752 mmHg 49%
    20:00 +2°C° 0 mm 3 mps 752 mmHg 54%
    21:00 +2°C° 0 mm 3 mps 752 mmHg 56%
    22:00 +1°C° 0 mm 3 mps 752 mmHg 58%
    23:00 +1°C° 0 mm 3 mps 751 mmHg 60%

    Day after tomorrow, 2 April, Thursday

    Time Temperature Precipitation Wind Pressure Humidity
    00:00 +1°C° 0 mm 3 mps 751 mmHg 62%
    01:00 -1°C° 0 mm 4 mps 751 mmHg 63%
    02:00 -1°C° 0 mm 4 mps 751 mmHg 65%
    03:00 -1°C° 0 mm 4 mps 751 mmHg 65%
    04:00 -2°C° 0 mm 4 mps 751 mmHg 66%
    05:00 -2°C° 0 mm 4 mps 751 mmHg 66%
    06:00 0°C° 0 mm 4 mps 751 mmHg 61%
    07:00 +1°C° 0 mm 4 mps 751 mmHg 55%
    08:00 +2°C° 0 mm 5 mps 751 mmHg 49%
    09:00 +5°C° 0 mm 5 mps 751 mmHg 46%
    10:00 +6°C° 0 mm 5 mps 751 mmHg 43%
    11:00 +7°C° 0 mm 5 mps 751 mmHg 40%
    12:00 +8°C° 0 mm 6 mps 750 mmHg 38%
    13:00 +9°C° 0 mm 6 mps 750 mmHg 36%
    14:00 +9°C° 0 mm 6 mps 750 mmHg 34%
    15:00 +9°C° 0 mm 6 mps 750 mmHg 34%
    16:00 +9°C° 0 mm 5 mps 749 mmHg 35%
    17:00 +9°C° 0 mm 5 mps 749 mmHg 35%
    18:00 +8°C° 0 mm 4 mps 749 mmHg 40%
    19:00 +6°C° 0 mm 4 mps 749 mmHg 44%
    20:00 +5°C° 0 mm 3 mps 749 mmHg 49%
    21:00 +5°C° 0 mm 3 mps 749 mmHg 50%
    22:00 +4°C° 0 mm 3 mps 749 mmHg 51%
    23:00 +4°C° 0 mm 3 mps 749 mmHg 52%

    3 April, Friday

    Time Temperature Precipitation Wind Pressure Humidity
    00:00 +3°C° 0 mm 3 mps 749 mmHg 53%
    01:00 +3°C° 0 mm 3 mps 750 mmHg 53%
    02:00 +2°C° 0 mm 3 mps 750 mmHg 54%
    03:00 +2°C° 0 mm 3 mps 750 mmHg 55%
    04:00 +2°C° 0 mm 3 mps 749 mmHg 56%
    05:00 +1°C° 0 mm 3 mps 749 mmHg 56%
    06:00 +3°C° 0 mm 3 mps 749 mmHg 53%
    07:00 +4°C° 0 mm 4 mps 750 mmHg 49%
    08:00 +5°C° 0 mm 4 mps 750 mmHg 46%
    09:00 +7°C° 0 mm 4 mps 750 mmHg 41%
    10:00 +10°C° 0 mm 4 mps 749 mmHg 36%
    11:00 +10°C° 0 mm 5 mps 749 mmHg 31%
    12:00 +12°C° 0 mm 5 mps 749 mmHg 31%
    13:00 +12°C° 0 mm 5 mps 749 mmHg 30%
    14:00 +13°C° 0 mm 5 mps 749 mmHg 30%
    15:00 +12°C° 0 mm 5 mps 749 mmHg 31%
    16:00 +12°C° 0 mm 5 mps 748 mmHg 33%
    17:00 +12°C° 0 mm 5 mps 748 mmHg 34%
    18:00 +10°C° 0 mm 4 mps 749 mmHg 38%
    19:00 +8°C° 0 mm 4 mps 749 mmHg 42%
    20:00 +7°C° 0 mm 4 mps 749 mmHg 47%
    21:00 +6°C° 0 mm 4 mps 750 mmHg 50%
    22:00 +7°C° 0 mm 3 mps 750 mmHg 53%
    23:00 +5°C° 0 mm 3 mps 750 mmHg 56%

    4 April, Saturday

    Time Temperature Precipitation Wind Pressure Humidity
    00:00 +5°C° 0 mm 3 mps 751 mmHg 60%
    01:00 +5°C° 0 mm 3 mps 751 mmHg 63%
    02:00 +4°C° 0 mm 3 mps 751 mmHg 67%
    03:00 +4°C° 0 mm 3 mps 751 mmHg 70%
    04:00 +4°C° 0 mm 3 mps 752 mmHg 74%
    05:00 +3°C° 0 mm 3 mps 752 mmHg 77%
    06:00 +4°C° 0 mm 4 mps 753 mmHg 72%
    07:00 +5°C° 0 mm 4 mps 753 mmHg 67%
    08:00 +6°C° 0 mm 5 mps 754 mmHg 62%
    09:00 +7°C° 0 mm 5 mps 754 mmHg 56%
    10:00 +8°C° 0 mm 6 mps 754 mmHg 49%
    11:00 +9°C° 0 mm 6 mps 755 mmHg 43%
    12:00 +9°C° 0 mm 6 mps 755 mmHg 40%
    13:00 +10°C° 0 mm 7 mps 755 mmHg 37%
    14:00 +10°C° 0 mm 7 mps 755 mmHg 34%
    15:00 +9°C° 0 mm 7 mps 756 mmHg 34%
    16:00 +9°C° 0 mm 7 mps 756 mmHg 34%
    17:00 +8°C° 0 mm 7 mps 756 mmHg 34%
    18:00 +7°C° 0 mm 6 mps 757 mmHg 37%
    19:00 +6°C° 0 mm 5 mps 758 mmHg 41%
    20:00 +5°C° 0 mm 4 mps 758 mmHg 44%
    21:00 +4°C° 0 mm 4 mps 759 mmHg 47%
    22:00 +4°C° 0 mm 3 mps 760 mmHg 50%
    23:00 +3°C° 0 mm 3 mps 760 mmHg 53%

    5 April, Sunday

    Time Temperature Precipitation Wind Pressure Humidity
    00:00 +3°C° 0 mm 3 mps 761 mmHg 55%
    01:00 +2°C° 0 mm 3 mps 761 mmHg 58%
    02:00 +2°C° 0 mm 3 mps 761 mmHg 60%
    03:00 0°C° 0 mm 4 mps 762 mmHg 61%
    04:00 0°C° 0 mm 4 mps 762 mmHg 63%
    05:00 0°C° 0 mm 4 mps 762 mmHg 65%
    06:00 +1°C° 0 mm 5 mps 763 mmHg 60%
    07:00 +2°C° 0 mm 5 mps 763 mmHg 56%
    08:00 +3°C° 0 mm 6 mps 764 mmHg 51%
    09:00 +4°C° 0 mm 6 mps 764 mmHg 47%
    10:00 +5°C° 0 mm 6 mps 765 mmHg 43%
    11:00 +6°C° 0 mm 5 mps 765 mmHg 40%
    12:00 +7°C° 0 mm 5 mps 765 mmHg 37%
    13:00 +7°C° 0 mm 5 mps 765 mmHg 34%
    14:00 +8°C° 0 mm 5 mps 765 mmHg 32%
    15:00 +8°C° 0 mm 4 mps 766 mmHg 32%
    16:00 +8°C° 0 mm 4 mps 766 mmHg 33%
    17:00 +7°C° 0 mm 4 mps 766 mmHg 33%
    18:00 +6°C° 0 mm 4 mps 766 mmHg 37%
    19:00 +5°C° 0 mm 3 mps 766 mmHg 40%
    20:00 +4°C° 0 mm 3 mps 767 mmHg 44%
    21:00 +3°C° 0 mm 3 mps 767 mmHg 45%
    22:00 +4°C° 0 mm 2 mps 767 mmHg 46%
    23:00 +3°C° 0 mm 2 mps 768 mmHg 47%
    Show more